Location: Peterborough
(44.3091°N, 78.3197°W)
Time: 05:25:39
(UTC-04:00)

Transit 4A - Visible Passes

Search period start: 22 March 2023 00:00
Search period end: 01 April 2023 00:00
Orbit: 868 x 976 km, 66.8° (Epoch: 21 March)

Date Brightness Start Highest point End Pass type
(mag) Time Alt. Az. Time Alt. Az. Time Alt. Az.
22 Mar 10.8 06:39:09 10° SE 06:42:06 14° ESE 06:45:04 10° ENE visible
26 Mar 11.0 05:32:12 10° ESE 05:32:49 10° E 05:33:27 10° E visible
27 Mar 10.4 05:38:08 10° SE 05:41:38 17° ESE 05:45:11 10° ENE visible
28 Mar 9.9 05:45:54 10° SSE 05:50:32 25° ESE 05:55:13 10° NE visible
29 Mar 9.3 05:54:13 10° S 05:59:30 37° ESE 06:04:52 10° NE visible
30 Mar 8.5 06:02:53 10° SSW 06:08:32 55° ESE 06:14:18 10° NE visible
31 Mar 10.4 04:30:09 10° ESE 04:32:20 12° E 04:34:32 10° ENE visible
31 Mar 7.9 06:11:50 10° SSW 06:17:39 81° ESE 06:23:36 10° NNE visible
